sat.trackr.live / text

‹ back to catalog

ECHOSTAR 16

NORAD 39008 · 2012-065A

PAYLOAD ACTIVE UNKNOWN

§ Identity

Operator
Country
US
Launch date
2012-11-20
Launch site
TYMSC
Launch vehicle
Mass (kg)
RCS (m²)
3.79

Purposes: comms

External: N2YO · Heavens-Above · Gunter

§ Orbital elements

Epoch: 2026-05-24T23:22:38.556768Z

Period
1,436.13 min
Inclination
0.0145°
Eccentricity
0.0002266
Mean motion
1.00269717 rev/d
Perigee alt
35,777.6 km
Apogee alt
35,796.7 km
Semi-major
42,165.3 km
B*
0.0000e+0
RAAN
322.5103°
Arg perigee
105.0286°
Mean anomaly
104.1918°
Rev number
4,941

§ Raw data

ECHOSTAR 161 39008U 12065A   26144.97405737  .00000000  00000+0  00000+0 0  99912 39008   0.0145 322.5103 0002266 105.0286 104.1918  1.00269717 49411

JSON: /api/v1/satellites/39008 · /tle

For live sub-satellite position, see the globe view (requires WebGL).

§ Visibility from observer

Set your observer location to see the next 7 days of passes ≥ 10°. The values pass through the URL so the page stays shareable.

No JS? Fill the form by hand. The geolocation button needs JavaScript.